Update:The ATLAS 5 CENTAUR rocket body re-entered the Earths atmosphere on the 31st July 2012 @ 21:00 GMT ± 7 minutes.
Inclination: 20.09°Revolution Number: 189Predicted Location: 20°S 277°W
Update:The ATLAS 5 CENTAUR rocket body is predicted to re-enter the Earths atmosphere on the 31st July 2012 @ 23:00 GMT ± 8 hours.
ATLAS 5 CENTAUR RB 1 38255U 12019B 12213.42532500 .99999999 -51393-4 50555-2 0 1066 2 38255 020.0977 288.4834 1628622 248.3789 232.6245 12.75473618 1857
Period: 142.08 minutesInclination: 20.09°Apogee: 5184 kmPerigee: 99 km Revolution Number: 189Predicted Location: 16.7°S 134.2°W
Update:The ATLAS 5 CENTAUR rocket body is predicted to re-enter the Earths atmosphere on the 31st July 2012 @ 17:30 GMT ± 15 hours.
ATLAS 5 CENTAUR R/B 1 38255U 12019B 12212.87516204 .99999999 -37654-4 30666-2 0 1017 2 38255 020.0555 290.8899 2418720 243.4252 046.7558 11.01623212 1783
Period: 142.08 minutesInclination: 20.09°Apogee: 5184 kmPerigee: 99 km Revolution Number: 186Predicted Location: 18.9°S, 6.1°E
Update:The ATLAS 5 CENTAUR rocket body is predicted to re-enter the Earths atmosphere on the 1st August 2012 @ 05:30 GMT ± 15 hours.
ATLAS 5 CENTAUR RB 1 38255U 12019B 12212.57671296 .02228128 -26987-4 10000-3 0 983 2 38255 020.0807 292.0228 2782236 240.5917 341.3976 10.21234472 1757
Period: 172.58 minutesInclination: 20.09°Apogee: 7677 kmPerigee: 102 km Revolution Number: 185Predicted Location: 1.4°S, 76.4°E
Update:The ATLAS 5 CENTAUR rocket body is predicted to re-enter the Earths atmosphere on the 31st July 2012 @ 08:30 GMT ± 24 hours.
ATLAS 5 CENTAUR RB 1 38255U 12019B 12211.79981609 .87155866 -26225-4 29319-2 0 874 2 38255 020.0919 294.3053 3444486 236.9172 195.3926 08.86430520 1681
Period: 180.29 minutesInclination: 20.09°Apogee: 8291 kmPerigee: 96 km Revolution Number: 185Predicted Location: 20°S, 116.8°E
An ATLAS 5 CENTAUR rocket body that was launched on the 4th May, 2012, from Cape Canaveral, Florida, for the classified AEHF 2 (USA 235) satellite mission is predicted to re-enter the Earths atmosphere on the 31st July 2012 @ 19:00 GMT ± 48 hours.
ATLAS 5 CENTAUR RB 1 38255U 12019B 12209.69578139 .19086389 -11764-4 22166-2 0 749 2 38255 020.0341 298.6674 4827633 228.5645 342.3257 06.19341207 1530
Period: 358.19 minutesInclination: 20.03°Apogee: 20577 kmPerigee: 80 km Revolution Number: 191Predicted Location: 15.7°S, 1.8°E